{"data":{"norad_id":65283,"epoch":"2026-09-20T14:23:08.125440Z","epoch_age_seconds":108910,"freshness":"FRESH","line1":"1 65283U 25184L   26263.59939960  .00012760  00000+0  39677-3 0  9993","line2":"2 65283  97.2841 311.6202 0000434 124.6292 235.4992 15.33455951 60741","mean_motion":15.33455951,"eccentricity":4.34e-5,"inclination_deg":97.2841,"raan_deg":311.6202,"arg_perigee_deg":124.6292,"mean_anomaly_deg":235.4992,"bstar":0.00039677,"rev_number":6074,"period_min":93.905534036432,"perigee_km":465.21357789522,"apogee_km":465.80760650622,"semimajor_km":6843.6475922007,"source":"CELESTRAK","updated_at":"2026-09-21T09:00:35.565678Z"}}